Seattle Boeing, WA
on Saturday, January 5, 2013

Saturday
Previous Day Next Day
Daily Summary
 ActualAverage (KSEA)Record (KSEA)
Temperature
Mean Temperature °F 41°F  
Max Temperature 46°F 46°F 55°F (2006)
Min Temperature 42°F 36°F 15°F (1982)
Degree Days
Heating Degree Days 21 24  
Month to date heating degree days 120  
Since 1 July heating degree days 2058  
Cooling Degree Days 0 0  
Month to date cooling degree days 0  
Year to date cooling degree days 0  
Moisture
Dew Point 35°F   
Average Humidity 72    
Maximum Humidity 92    
Minimum Humidity 63    
Precipitation
Precipitation 0.10 in 0.18 in 1.33 in (2006)
Month to date precipitation 0.92  
Year to date precipitation 0.92  
Snow
Snow 0.00 in in 2.00 in (1959)
Month to date snowfall  
Since 1 July snowfall  
Snow Depth in   
Wind
Wind Speed 3 mph   
Max Wind Speed 13 mph   
Max Gust Speed 18 mph   
Visibility 9 miles   
Events Rain   

Key: T is trace of precipitation, MM is missing value
Source: NWS Daily Summary
Time(PST)TemperatureDew PointHumidity Pressure Visibility Wind DirectionWind SpeedGust SpeedPrecipitationEvents Conditions
12:53 AM 44.1°F 36.0°F 73% 30.16 in 10.0 miles Calm Calm - N/A   Overcast
1:53 AM 44.1°F 37.0°F 76% 30.17 in 10.0 miles Calm Calm - N/A   Overcast
2:53 AM 42.1°F 37.0°F 82% 30.17 in 10.0 miles SW 3.5 mph - N/A   Overcast
3:53 AM 42.1°F 37.0°F 82% 30.18 in 10.0 miles Calm Calm - N/A   Mostly Cloudy
4:53 AM 44.1°F 35.1°F 71% 30.17 in 10.0 miles South 5.8 mph - N/A   Overcast
5:53 AM 43.0°F 34.0°F 71% 30.17 in 10.0 miles SE 3.5 mph - N/A   Mostly Cloudy
6:53 AM 43.0°F 35.1°F 74% 30.17 in 10.0 miles Calm Calm - N/A   Overcast
7:53 AM 43.0°F 33.1°F 68% 30.18 in 10.0 miles SSE 8.1 mph - N/A   Overcast
8:53 AM 44.1°F 33.1°F 65% 30.19 in 10.0 miles Calm Calm - N/A   Overcast
9:53 AM 45.0°F 33.1°F 63% 30.20 in 10.0 miles Calm Calm - 0.00 in   Overcast
10:53 AM 45.0°F 34.0°F 65% 30.20 in 10.0 miles SE 8.1 mph - 0.00 in   Overcast
11:53 AM 45.0°F 34.0°F 65% 30.19 in 10.0 miles SE 12.7 mph - N/A   Overcast
12:53 PM 45.0°F 35.1°F 68% 30.17 in 10.0 miles SE 9.2 mph - N/A   Mostly Cloudy
1:53 PM 45.0°F 35.1°F 68% 30.13 in 10.0 miles SE 9.2 mph 18.4 mph N/A   Overcast
2:53 PM 46.0°F 35.1°F 66% 30.15 in 10.0 miles South 3.5 mph - N/A   Scattered Clouds
3:53 PM 45.0°F 34.0°F 65% 30.14 in 10.0 miles Calm Calm - N/A   Overcast
4:53 PM 44.1°F 33.1°F 65% 30.12 in 10.0 miles SSE 5.8 mph - N/A   Scattered Clouds
5:53 PM 42.1°F 32.0°F 67% 30.12 in 10.0 miles SE 4.6 mph - N/A   Mostly Cloudy
6:53 PM 42.1°F 32.0°F 67% 30.13 in 10.0 miles SE 4.6 mph - N/A   Mostly Cloudy
7:53 PM 44.1°F 33.1°F 65% 30.13 in 10.0 miles Calm Calm - N/A   Overcast
8:12 PM 44.6°F 33.8°F 66% 30.13 in 10.0 miles Calm Calm - 0.00 in Rain Light Rain
8:53 PM 43.0°F 36.0°F 76% 30.13 in 7.0 miles Calm Calm - 0.01 in Rain Light Rain
9:53 PM 43.0°F 39.0°F 86% 30.14 in 5.0 miles South 5.8 mph - 0.04 in Rain Light Rain
10:53 PM 42.1°F 39.9°F 92% 30.15 in 6.0 miles SE 6.9 mph - 0.05 in   Overcast
11:53 PM 42.1°F 39.0°F 89% 30.15 in 5.0 miles SE 9.2 mph - N/A   Overcast
Moon Phase
Jan. 05 Jan. 11 Jan. 18 Jan. 26 Feb. 03
Sunrise:07:56 AM (PST) Moon Rise:12:54 AM (PST)1/5
Sunset:04:33 PM (PST) Moon Set:11:38 AM (PST)1/5

Copyright © 2014 The Weather Underground, Inc.